Location: Lincoln Acres
(32.6678°N, 117.0728°W)
Time: 15:57:15
(UTC+00:00)

Daily predictions for brighter satellites

Satellite Brightness Start Highest point End
(mag) Time Altitude Azimuth Time Altitude Azimuth Time Altitude Azimuth
Cosmos 921 Rocket 4.4 12:09:05 37° ESE 12:09:05 37° ESE 12:12:08 10° SSE
ATLAS 3B R/B 3.7 12:14:03 10° S 12:20:02 42° ESE 12:26:13 10° NE
Cosmos 1151 Rocket 4.1 12:23:48 34° NE 12:25:04 44° E 12:29:13 10° SSE
H-2A R/B 3.8 12:28:04 39° ENE 12:28:45 44° E 12:32:23 10° S
Cosmos 1634 Rocket 3.9 12:24:45 21° N 12:29:10 84° E 12:35:21 10° S
SL-4 R/B 3.5 12:33:53 25° SSE 12:34:34 27° SE 12:37:35 10° ENE
Meteor 1-31 Rocket 4.2 12:31:55 10° NNE 12:35:35 38° E 12:39:14 10° SSE
BREEZE-M DEB 3.5 12:37:56 43° ENE 12:37:56 43° ENE 12:41:22 10° NE
Okean 3 Rocket 3.5 12:36:35 10° S 12:41:07 87° W 12:45:40 10° N
DELTA 2 R/B (1) 4.1 12:41:22 41° NNW 12:41:47 41° N 12:47:02 10° ENE
Cosmos 1354 Rocket 3.8 12:36:47 10° SSW 12:42:02 75° WNW 12:47:20 10° NNE
Cosmos 2369 Rocket 4.3 12:49:41 11° N 12:49:41 11° N 12:49:56 10° N
MOS 1-B Rocket 4.1 12:39:27 10° SSE 12:45:52 75° ENE 12:51:37 10° N
Cosmos 1328 Rocket 3.9 12:47:58 16° N 12:51:21 63° E 12:55:37 10° SSE
CZ-2C R/B 3.0 12:52:47 10° SSE 12:58:12 65° ENE 13:03:32 10° N
CZ-4B R/B 4.0 12:55:47 10° NNE 13:00:16 89° E 13:04:41 10° SSW
COSMO-SKYMED 1 2.9 12:57:55 10° SSE 13:02:11 64° ENE 13:06:29 10° N
OAO 2 Rocket 4.0 12:58:55 20° SW 13:02:18 52° SSE 13:07:18 10° E
Meteor 1-10 Rocket 4.4 13:01:48 10° N 13:07:20 73° E 13:12:52 10° SSE
SL-27 R/B 4.1 13:05:09 10° N 13:08:23 32° ENE 13:11:33 10° SE
Cosmos 1408 Rocket 3.3 13:06:31 10° S 13:10:48 78° W 13:15:07 10° N
ADEOS 3.9 13:07:05 10° NNE 13:12:18 70° ESE 13:17:29 10° S
Landsat 5 3.9 13:12:18 10° SSE 13:16:47 70° ENE 13:21:14 10° N
DNEPR-1 R/B 4.1 13:14:24 21° NW 13:18:04 76° WSW 13:24:23 10° SSE
Cosmos 1743 Rocket 3.9 13:17:21 10° S 13:21:42 68° E 13:26:02 10° NNE
FALCON 9 R/B 4.1 13:04:13 22° WNW 13:22:24 88° SSW 13:29:17 10° ESE
Cosmos 1777 Rocket 4.1 13:21:47 10° SSW 13:26:50 52° WNW 13:31:57 10° N
SJ 16-02 1.4 13:23:45 10° SSW 13:27:59 50° WNW 13:32:15 10° N
Cosmos 1812 4.3 13:33:41 17° WSW 13:33:41 17° WSW 13:35:33 10° SW
Cosmos 773 Rocket 4.0 13:29:30 10° NNW 13:34:43 89° E 13:39:51 10° SSE
CZ-2C R/B 3.2 13:31:19 10° NNE 13:36:21 81° ESE 13:41:38 10° S
Cosmos 1515 Rocket 3.4 13:32:38 10° NNW 13:36:58 70° W 13:41:15 10° S
BREEZE-M DEB (TANK) 3.8 13:28:25 12° NW 13:42:08 60° SW 13:46:28 10° SSE
Cosmos 1340 Rocket 2.8 13:38:33 10° SSW 13:42:24 53° W 13:46:19 10° N
Meteor 2-15 Rocket 4.4 13:36:29 10° N 13:42:34 79° W 13:48:36 10° S
NOAA 11 4.2 13:37:25 10° N 13:42:52 67° WNW 13:48:17 10° SSW
CZ-4B R/B 2.5 13:41:49 10° N 13:45:25 86° WNW 13:49:05 10° SSW
ATLAS 5 CENTAUR R/B 2.7 13:44:50 16° WNW 13:45:49 17° NW 13:48:35 10° N
Cosmos 1500 Rocket 3.7 13:44:35 10° SSW 13:48:54 50° W 13:53:16 10° N
SKYMED 2 4.4 13:46:26 10° SSW 13:50:16 31° W 13:54:10 10° NW
Envisat 4.1 13:46:53 10° NNW 13:50:41 22° WNW 13:54:29 10° WSW
Sich 1 3.4 13:47:31 10° S 13:51:46 69° E 13:56:01 10° NNE
Nadezhda 4 Rocket 4.3 13:49:45 10° SSW 13:55:33 43° W 14:01:27 10° N
DMSP B5D2-2 4.1 13:51:00 10° SSE 13:56:13 89° ENE 14:01:26 10° NNW
H-2A R/B 2.7 13:57:06 10° SSE 14:01:16 59° ENE 14:05:33 10° N
Cosmos 1805 Rocket 3.5 13:56:58 10° SSW 14:01:19 66° W 14:05:40 10° N
CZ-4C R/B 3.7 14:02:24 10° SSW 14:05:10 29° W 14:07:57 10° NW
COSMOS 2487 2.6 14:01:51 10° N 14:05:12 70° ENE 14:08:31 10° SSE
Lacrosse 5 2.1 14:00:47 10° SSW 14:05:51 81° SE 14:10:57 10° NE
ATLAS 3B R/B 3.3 14:05:07 10° WSW 14:10:46 31° NW 14:16:38 10° N
Meteor 1-27 Rocket 4.1 14:06:03 10° NNW 14:11:29 47° W 14:17:01 10° SSW
Cosmos 1428 Rocket 4.5 14:05:50 10° SSW 14:11:56 68° W 14:18:01 10° N
Alouette 2 Rocket 3.2 14:08:44 10° NNW 14:12:16 70° W 14:16:19 10° S
SL-4 R/B 2.8 14:11:07 10° W 14:14:02 24° NW 14:17:05 10° NNE
AQUARIUS 4.2 14:09:47 10° NNE 14:14:18 89° W 14:18:46 10° SSW
Cosmos 1092 Rocket 4.1 14:08:32 10° SSW 14:14:38 55° W 14:20:48 10° N
Cosmos 1939 Rocket 2.9 14:11:16 10° N 14:15:03 50° WNW 14:18:46 10° SSW
